sat.trackr.live / text

‹ back to catalog

STARLINK-36540

NORAD 67511 · 2026-012U

PAYLOAD ACTIVE UNKNOWN

§ Identity

Operator
Country
US
Launch date
2026-01-18
Launch site
AFETR
Launch vehicle
Mass (kg)
RCS (m²)

Purposes: comms

External: N2YO · Heavens-Above · Gunter

§ Orbital elements

Epoch: 2026-09-19T03:17:52.319040Z

Period
94.27 min
Inclination
42.9994°
Eccentricity
0.0000828
Mean motion
15.27574447 rev/d
Perigee alt
482.5 km
Apogee alt
483.6 km
Semi-major
6,861.2 km
B*
2.1476e-5
RAAN
302.2366°
Arg perigee
156.6150°
Mean anomaly
203.4740°
Rev number
3,734

§ Raw data

STARLINK-365401 67511U 26012U   26262.13741110  .00000329  00000+0  21476-4 0  99942 67511  42.9994 302.2366 0000828 156.6150 203.4740 15.27574447 37346

JSON: /api/v1/satellites/67511 · /tle

For live sub-satellite position, see the globe view (requires WebGL).

§ Visibility from observer

Set your observer location to see the next 7 days of passes ≥ 10°. The values pass through the URL so the page stays shareable.

No JS? Fill the form by hand. The geolocation button needs JavaScript.